Overview Statistics Trail Chart Weather Telemetry Raw packets
 

This is the latest recevied weather packets stored in our database for station/object JF7BTK-10. If no packets are shown the sender has not sent any weather packets the latest 10 day(s).

<< 17 18 19 20 21 22 23 >>
Time Temp. Humidity Pressure Rain* Wind** Luminosity Snow
1788498787 24.44° C 65% 1006.8 hPa 0 mm - - -
1788497888 24.44° C 61% 1006.8 hPa 0 mm - - -
1788497151 24.44° C 61% 1006.7 hPa 0 mm - - -
1788496988 24.44° C 61% 1006.7 hPa 0 mm - - -
1788496568 25° C 60% 1006.7 hPa 0 mm - - -
1788496087 25° C 61% 1006.7 hPa 0 mm - - -
1788495652 25° C 62% 1006.7 hPa 0 mm - - -
1788495188 25° C 62% 1006.9 hPa 0 mm - - -
1788494287 25° C 61% 1006.7 hPa 0 mm - - -
1788494150 25° C 62% 1006.8 hPa 0 mm - - -
1788493850 25° C 62% 1006.6 hPa 0 mm - - -
1788493387 25° C 63% 1006.6 hPa 0 mm - - -
1788493251 24.44° C 64% 1006.5 hPa 0 mm - - -
1788492488 24.44° C 63% 1006.7 hPa 0 mm - - -
1788491588 24.44° C 61% 1006.5 hPa 0 mm - - -
1788490687 25° C 62% 1006.5 hPa 0 mm - - -
1788490552 25° C 62% 1006.4 hPa 0 mm - - -
1788489787 25.56° C 60% 1006.8 hPa 0 mm - - -
1788489651 25.56° C 61% 1007 hPa 0 mm - - -
1788488888 25.56° C 60% 1007.1 hPa 0 mm - - -
1788488450 25° C 60% 1007.1 hPa 0 mm - - -
1788488150 25° C 58% 1006.9 hPa 0 mm - - -
1788487988 25° C 56% 1006.9 hPa 0 mm - - -
1788487851 25° C 59% 1006.8 hPa 0 mm - - -
1788487087 25° C 56% 1006.9 hPa 0 mm - - -

* Rain latest hour (hover to see other rain measurements)
** Current wind speed in m/s (hover to see current wind gust speed)